{"data":{"norad_id":52646,"epoch":"2026-05-25T02:27:26.089920Z","epoch_age_seconds":63247,"freshness":"FRESH","line1":"1 52646U 22052BA  26145.10238530 -.00001669  00000+0 -86819-4 0  9993","line2":"2 52646  53.2140 276.1269 0001480 101.1798 258.9361 15.08824920222675","mean_motion":15.0882492,"eccentricity":0.000148,"inclination_deg":53.214,"raan_deg":276.1269,"arg_perigee_deg":101.1798,"mean_anomaly_deg":258.9361,"bstar":-8.6819e-5,"rev_number":22267,"period_min":95.438508531527,"perigee_km":538.76562975569,"apogee_km":540.81333599463,"semimajor_km":6917.9264828752,"source":"CELESTRAK","updated_at":"2026-05-25T13:38:17.207988Z"}}